Dewpoint
58 57 56 54 52 51 50 50 49 49 49 47 47 46 48 48 48 47 48 49 48 47 46 45 46 47 45 33 34 40 43 45 45 47 47 46 44 44 39 42 43 43 42 46 48 49 46
60 59 57 56 53 51 51 50 50 49 49 49 48 47 46 48 46 46 47 47 48 48 47 47 46 46 41 30 36 38 38 40 42 44 47 47 46 46 42 41 40 43 43 42 45 46 48
61 61 59 58 55 52 51 50 50 49 49 49 49 48 46 47 46 46 47 48 49 48 48 47 47 45 34 31 36 38 40 41 41 44 46 49 49 46 42 41 43 42 40 41 40 46 46
61 61 60 59 56 53 51 50 50 50 49 49 49 48 46 46 46 46 47 48 49 48 48 47 46 45 30 35 37 40 40 42 46 48 48 47 47 44 41 40 42 41 38 35 41 45 44
61 61 61 60 58 54 51 50 50 50 49 48 48 47 46 45 47 46 47 49 49 47 48 47 41 39 30 36 36 40 40 45 45 45 43 44 44 41 39 35 36 35 35 35 38 44 44
61 61 61 61 59 56 53 51 50 50 49 49 49 48 46 47 47 47 48 48 49 46 44 44 38 31 34 34 37 39 41 44 42 42 38 39 40 36 36 33 29 31 32 36 34 39 42
58 59 60 60 59 57 54 51 50 50 49 49 48 47 47 46 48 47 48 42 38 36 35 33 33 32 34 38 40 39 41 42 41 38 33 39 32 30 33 34 32 30 29 29 34 40 37
54 57 59 60 60 58 54 51 50 50 49 49 48 46 46 47 48 47 47 38 38 40 33 34 34 35 37 39 36 39 42 38 37 34 37 34 29 35 35 33 31 29 27 27 36 40 38
52 53 57 60 60 58 55 52 50 50 49 49 48 47 46 48 47 47 41 39 41 41 36 35 35 33 35 38 36 38 41 38 35 35 35 32 36 38 34 32 29 29 29 27 31 36 38
48 51 52 56 60 58 55 52 50 50 49 49 48 47 46 47 46 41 38 40 41 41 28 29 34 36 38 35 34 39 41 40 32 33 34 34 36 35 34 32 31 29 32 32 33 33 29
45 49 51 54 60 58 56 54 50 50 49 49 49 47 46 47 46 41 40 41 42 39 11 30 35 40 38 34 34 38 41 40 32 33 33 32 34 34 32 31 30 29 33 32 33 29 28
44 46 50 51 55 58 56 53 50 49 49 49 49 47 47 46 45 42 42 42 40 29 9 30 35 34 34 32 33 37 38 40 39 31 33 34 37 36 34 34 33 33 31 31 29 28 25
42 45 47 50 53 58 56 53 50 49 49 49 48 47 47 47 42 43 43 40 28 13 30 28 30 32 30 29 31 33 34 32 31 26 27 31 32 37 36 32 34 32 30 26 24 24 20
43 44 45 49 51 58 55 53 50 49 49 49 48 48 48 45 44 43 42 34 5 27 29 31 32 31 29 29 29 30 29 29 31 32 30 25 19 33 36 34 31 32 30 23 16 19 18
41 44 44 48 50 52 55 53 51 49 49 48 49 48 44 46 45 45 39 26 11 30 32 31 31 29 29 30 28 28 28 27 27 30 29 27 25 35 35 35 33 30 28 29 27 27 21
40 44 43 46 48 52 54 53 50 50 49 50 47 45 44 47 46 43 36 27 29 33 32 31 27 28 25 28 28 29 27 28 27 28 31 31 27 34 34 36 37 34 34 26 30 21 17
40 43 44 46 47 53 54 53 50 49 48 50 45 42 46 47 45 41 25 31 31 32 32 31 29 28 25 23 29 27 26 27 28 30 31 33 33 32 35 34 31 34 32 32 29 25 14
39 44 45 46 48 52 54 52 50 49 50 49 44 38 46 45 38 38 35 31 31 31 33 32 32 31 29 27 25 23 27 27 33 35 33 35 34 29 32 36 35 34 33 32 24 24 23
41 44 46 47 53 54 53 52 50 49 49 45 41 40 45 44 31 32 30 23 30 31 32 32 32 31 29 26 24 23 22 31 31 34 33 36 32 26 28 33 36 34 35 35 34 32 24
43 45 46 51 52 54 52 51 50 50 49 45 38 33 35 41 39 30 26 21 24 30 31 32 30 29 28 26 26 23 19 22 26 32 35 36 32 29 24 29 32 32 31 33 34 28 26
43 46 47 50 52 54 52 50 49 49 49 43 37 31 31 27 30 24 20 20 20 24 31 28 28 29 23 22 22 21 17 19 27 34 36 35 29 31 31 31 33 33 32 33 32 31 26
46 46 47 52 52 54 52 50 49 49 50 40 30 27 27 25 26 24 23 16 17 21 24 19 26 20 18 18 17 17 22 21 22 30 31 32 28 30 28 32 33 30 32 33 33 34 33
46 44 47 51 51 53 51 49 49 49 47 39 35 31 21 22 20 17 18 16 21 20 18 20 20 18 17 21 25 25 24 23 23 26 26 27 26 20 23 32 31 27 30 31 29 32 33
43 47 47 49 51 53 51 49 49 50 44 36 32 27 20 10 16 14 17 18 22 19 16 20 20 19 23 24 25 24 23 22 22 27 27 26 25 25 21 29 20 24 28 31 30 28 31
43 43 48 48 51 52 50 48 48 50 46 32 36 32 21 12 14 16 18 17 19 21 18 20 25 24 25 25 23 23 25 25 27 23 29 28 26 21 22 25 26 21 22 29 29 28 30
42 43 48 49 53 51 50 48 48 49 44 33 33 36 30 11 11 17 17 18 15 19 22 24 25 25 27 27 24 20 19 22 24 28 30 29 28 25 24 22 18 22 23 25 25 20 31
42 43 47 48 50 51 49 48 48 48 46 32 33 38 30 19 24 22 16 16 22 20 22 24 24 24 27 24 23 23 20 23 21 25 25 26 27 21 22 23 24 26 24 27 17 22 34
43 44 48 47 51 50 48 47 47 48 44 31 34 38 33 26 27 28 27 23 24 23 21 25 25 27 26 22 20 21 20 23 23 25 27 24 24 24 24 23 21 28 27 23 28 31 32
42 45 47 50 50 49 48 47 47 47 39 33 27 37 36 29 29 32 32 32 30 29 27 27 25 24 27 25 24 23 22 21 21 18 26 23 30 28 30 28 35 36 31 32 31 30 31
Wind_Speed
18 16 13 12 11 12 11 10 12 11 13 12 14 12 13 12 11 12 14 15 15 14 14 15 17 21 9 4 4 4 5 6 6 4 7 2 7 3 9 8 8 3 3 7 13 11 7
21 19 15 14 12 12 11 10 10 11 13 13 12 13 12 13 12 12 13 14 15 14 13 14 15 19 1 8 10 2 1 5 6 5 4 6 3 9 8 14 15 11 5 4 8 12 12
23 21 18 17 15 13 11 11 10 11 11 13 13 11 12 13 12 11 12 14 15 14 14 13 13 10 4 5 8 11 9 3 3 6 2 8 4 9 3 15 12 14 16 5 7 3 8
23 22 21 20 17 14 12 10 10 11 11 13 13 12 12 11 12 11 12 16 17 15 14 15 13 7 1 4 7 12 13 5 3 5 3 1 9 7 2 3 7 9 5 5 4 8 2
26 22 22 22 19 16 15 11 10 10 10 11 12 11 11 11 12 11 12 16 19 15 15 13 7 3 4 5 13 13 7 8 6 3 7 1 4 5 8 11 11 2 8 4 7 5 7
29 24 20 22 21 17 16 14 10 10 9 10 12 11 10 11 11 11 13 17 16 13 3 6 9 3 8 9 9 11 8 1 5 4 6 9 7 4 4 4 9 12 9 9 9 4 9
31 32 22 20 21 20 17 16 11 9 8 9 10 10 9 9 10 9 8 5 2 3 8 5 2 3 5 10 4 7 6 5 2 9 5 6 4 2 3 5 3 9 14 9 18 17 16
35 33 31 20 23 21 19 17 13 10 7 8 9 9 8 9 9 8 4 2 1 1 4 2 0 3 2 7 3 11 13 1 4 6 3 4 3 3 11 12 10 4 10 13 4 20 9
34 36 33 29 24 23 22 20 15 11 8 6 8 8 8 7 7 4 1 2 3 2 2 2 1 1 2 5 3 7 9 5 5 8 5 5 2 12 9 9 7 5 8 8 8 7 8
37 36 37 37 25 24 23 21 16 12 10 5 6 7 7 4 3 1 2 2 4 2 4 5 1 1 2 2 4 3 5 2 2 3 6 1 3 6 7 1 6 6 3 11 15 12 8
36 37 34 38 28 26 24 22 18 13 11 6 5 6 6 4 3 1 4 2 4 1 3 3 1 3 2 1 1 1 3 5 2 2 1 1 4 2 2 3 3 1 7 10 7 6 2
36 35 35 35 42 28 27 25 19 15 11 7 5 6 6 4 2 3 4 1 1 2 2 1 2 2 2 4 3 1 2 1 4 1 2 3 4 3 3 3 5 7 3 9 5 3 4
35 34 34 33 40 28 27 24 19 16 12 9 6 7 6 5 2 6 4 2 3 4 2 2 3 4 2 6 7 6 4 4 3 4 7 5 5 5 1 1 3 4 7 3 3 6 9
35 36 36 33 41 25 27 23 19 17 14 10 8 9 6 2 6 6 2 2 4 3 5 3 3 6 4 8 6 10 3 11 13 8 3 9 6 10 8 5 6 8 9 7 7 7 5
36 35 36 34 35 42 31 27 26 20 16 13 14 4 3 4 5 4 4 2 5 6 6 5 6 4 4 7 7 7 14 12 11 17 7 8 7 3 7 5 7 6 9 3 2 3 1
35 36 36 36 36 46 34 30 26 24 20 22 10 7 5 9 5 4 2 3 5 6 6 3 6 9 4 5 8 8 5 6 7 21 19 4 6 7 8 3 2 2 2 8 2 5 5
34 37 37 35 37 39 34 32 30 27 25 24 8 6 5 10 4 2 3 4 4 6 6 6 5 5 4 5 13 6 5 9 4 5 8 9 7 1 4 13 16 6 4 3 6 5 5
34 39 34 32 38 34 35 34 31 30 27 15 6 5 8 7 4 4 3 4 2 8 6 4 3 5 5 6 6 3 7 8 5 6 6 4 5 9 14 4 4 7 10 8 11 7 7
36 35 35 36 30 31 38 35 33 32 34 12 10 5 3 3 6 6 3 3 4 5 7 5 5 8 3 1 4 6 4 9 14 5 2 6 5 6 4 2 5 7 8 6 4 2 8
36 37 35 40 33 26 40 39 36 37 34 9 9 7 2 5 6 4 6 4 3 5 4 4 4 3 6 9 10 5 7 8 9 8 11 7 3 3 7 3 5 7 15 17 15 8 3
37 33 32 32 23 27 41 41 39 38 33 7 6 7 9 11 11 9 5 3 5 4 4 3 2 6 1 2 6 9 6 5 5 10 6 3 4 10 13 15 7 4 10 18 22 16 18
30 26 29 17 22 36 43 41 41 38 29 5 8 6 3 4 9 13 5 5 7 4 4 2 5 3 5 1 3 8 3 2 5 7 4 4 2 9 9 15 11 14 16 18 24 23 22
23 25 27 16 19 39 44 42 40 37 20 7 5 1 5 8 8 8 7 6 7 7 4 5 4 3 6 4 5 9 7 9 7 2 2 2 2 5 5 3 13 10 21 22 19 23 24
22 24 21 20 22 33 39 40 39 42 27 5 6 4 5 7 8 8 8 5 8 6 4 3 5 2 0 8 11 10 10 14 10 8 6 3 2 1 6 2 3 5 3 24 26 20 25
21 22 26 21 28 36 38 38 38 41 27 4 3 4 4 7 7 7 11 6 8 5 3 2 3 1 4 4 4 4 2 2 1 6 12 5 1 3 2 4 8 5 3 3 13 14 14
21 21 22 18 12 40 40 40 38 38 24 7 3 1 2 11 7 4 7 7 5 6 4 3 3 2 3 1 2 3 2 3 3 3 5 8 2 2 4 2 2 4 3 3 6 4 7
20 22 24 18 18 34 37 36 36 35 24 6 3 2 4 7 3 3 4 6 6 5 5 4 3 2 2 2 1 1 2 4 1 2 5 4 4 8 8 5 6 6 2 0 1 1 3
18 21 22 25 24 30 34 32 31 29 25 9 4 2 4 6 6 7 4 5 5 5 6 6 4 1 2 2 2 0 1 2 2 3 4 9 6 5 6 4 6 10 3 2 3 4 1
18 20 22 11 36 35 31 26 27 30 25 10 5 5 9 10 5 8 12 12 5 4 9 3 4 4 4 3 2 2 1 2 2 2 5 2 2 2 5 5 3 16 17 11 11 4 4
Wind_Direction
274 270 273 275 286 295 302 312 318 324 322 327 326 333 339 338 336 333 330 333 334 337 329 329 335 327 338 40 335 238 312 347 355 19 91 296 257 290 146 140 144 246 10 59 343 0 3
271 265 260 266 267 272 286 296 306 316 317 319 321 327 339 334 334 332 327 327 328 329 327 330 333 331 313 35 331 292 227 301 307 349 105 199 292 297 294 150 156 209 212 17 0 345 325
274 265 254 258 258 262 268 283 295 303 313 319 320 326 331 332 329 326 322 320 316 317 317 321 325 329 344 328 320 335 329 246 270 349 101 115 214 295 309 149 139 137 183 335 334 13 314
275 272 253 254 249 253 257 264 281 292 308 315 319 323 329 329 323 324 317 311 309 309 305 308 317 325 330 289 316 352 336 21 80 49 98 267 244 235 38 141 89 107 88 129 340 347 230
280 274 257 252 244 243 248 246 264 280 298 310 314 319 327 325 319 321 313 306 304 301 292 297 325 188 355 332 2 328 0 75 79 81 32 77 30 17 358 117 133 156 132 135 356 281 292
300 275 265 248 243 238 244 244 245 268 287 305 309 319 322 321 317 318 313 302 289 306 298 266 279 51 8 341 326 316 328 158 53 348 33 36 31 40 27 96 155 166 138 178 187 245 243
324 317 263 251 235 232 235 243 238 251 272 295 303 312 317 316 314 316 342 359 23 33 49 81 319 51 333 324 355 332 325 119 52 46 50 24 76 141 292 247 187 144 179 194 195 192 178
330 322 304 255 232 227 229 233 229 239 251 280 296 310 310 314 307 310 332 14 72 147 95 174 129 108 315 312 341 346 345 230 43 89 81 64 188 310 295 275 258 280 190 207 75 157 177
320 324 318 284 228 220 224 227 221 226 234 259 287 297 299 307 307 303 123 97 328 12 110 140 132 53 285 349 14 325 5 330 130 113 111 140 307 317 317 295 224 235 230 188 174 164 206
317 316 324 326 228 216 217 222 214 214 224 226 270 284 284 293 300 239 132 162 308 345 86 354 197 277 286 274 341 316 321 324 346 141 162 208 253 289 321 312 169 223 151 152 140 144 190
311 311 315 317 262 213 211 217 210 203 215 206 239 262 259 225 281 264 161 187 299 50 61 314 117 164 221 3 163 306 312 335 347 154 55 323 342 327 276 213 269 213 185 155 142 183 140
308 308 308 316 315 211 206 208 200 198 201 190 209 238 224 228 219 134 147 285 27 86 68 47 198 233 203 194 202 181 288 232 274 244 25 284 312 264 254 328 6 126 79 119 82 74 219
304 302 305 305 307 209 204 200 193 194 186 182 194 206 197 281 211 150 114 70 100 70 182 212 236 211 222 190 176 182 201 198 208 179 233 322 267 295 244 269 349 130 152 152 160 200 230
302 301 301 298 318 247 196 189 197 190 174 174 174 173 238 287 145 119 91 113 85 196 195 239 224 263 230 166 206 189 295 229 217 242 155 207 248 199 199 193 189 200 170 177 186 192 196
295 294 295 291 298 305 183 186 185 184 162 159 150 190 196 143 118 85 89 135 169 194 168 188 192 242 244 217 206 205 208 224 231 209 222 207 254 214 209 179 165 205 219 235 105 261 213
291 290 292 286 298 302 182 183 187 169 156 150 149 174 168 147 116 90 118 209 167 164 162 148 211 201 243 203 190 198 224 228 228 219 211 219 253 205 200 131 81 172 211 195 126 190 221
287 292 291 284 296 289 181 179 180 164 156 164 141 176 163 133 96 111 217 214 189 183 174 183 233 257 270 280 206 207 236 293 296 128 291 198 224 246 162 206 184 160 205 183 164 194 206
288 289 282 280 288 281 179 175 174 160 154 155 154 176 169 135 159 206 215 200 235 165 173 232 270 255 252 290 292 287 240 237 135 122 169 251 196 220 212 278 193 203 189 176 192 197 212
289 287 291 279 285 254 176 172 172 163 151 143 157 120 154 194 189 204 210 232 194 193 192 195 230 218 210 288 309 283 287 35 31 48 223 163 232 205 183 202 214 230 196 180 144 39 215
292 292 286 283 261 212 172 174 171 167 162 157 157 143 154 205 258 223 192 210 204 200 240 225 276 315 296 287 272 274 331 32 32 14 334 161 240 275 255 32 134 194 207 200 191 190 221
286 278 280 284 261 223 173 174 171 169 169 159 190 199 180 182 228 203 169 166 179 184 223 211 281 248 309 279 320 287 1 337 34 6 41 81 265 223 265 264 244 200 203 203 213 220 213
292 282 282 281 291 191 175 175 170 164 166 192 177 165 160 147 145 163 176 199 186 167 174 223 220 2 21 261 242 288 349 325 283 29 54 359 254 336 258 230 223 229 207 202 220 222 242
298 303 289 285 286 188 172 174 163 156 149 183 207 239 146 157 153 158 189 170 182 144 61 96 113 12 318 299 301 274 250 250 250 218 128 326 59 335 289 269 171 228 223 220 222 222 222
295 312 291 300 255 189 172 170 159 162 174 138 193 162 141 172 177 186 148 138 157 167 159 116 84 144 166 316 304 270 251 252 244 223 179 164 12 277 290 17 219 262 208 218 221 238 225
298 293 315 290 301 180 172 165 162 171 180 133 157 219 136 144 153 121 142 129 120 118 127 139 67 117 356 347 356 2 6 352 31 242 199 162 203 277 268 306 298 314 319 168 187 254 233
293 301 307 305 289 174 173 166 168 175 170 116 109 28 86 128 190 134 136 151 159 158 127 110 96 53 53 45 46 43 32 339 12 100 136 151 264 287 334 229 254 265 286 305 138 289 347
283 290 300 308 309 171 168 169 172 174 174 145 101 75 79 110 29 53 148 161 134 122 125 136 151 87 80 80 89 83 289 341 357 88 169 181 203 222 253 271 281 302 284 282 149 273 9
293 285 291 306 201 175 165 168 169 172 170 151 127 68 82 94 48 33 49 124 117 138 154 159 112 59 118 122 131 27 290 322 311 207 183 198 191 204 197 238 244 355 351 344 315 302 38
284 281 282 291 154 159 158 162 162 162 162 144 119 88 87 76 96 94 70 45 62 95 129 111 137 121 151 122 136 122 241 334 342 286 338 236 247 271 216 234 355 351 352 10 16 334 351